#timestamp,LO_Frequency,Hit,StdDev 
1632726015.1,286047000.5,N
1632726035.8,286047000.2,N
1632726055.7,286047002.2,N
1632726075.5,286046999.8,N
1632726095.4,286047002.8,N
1632726115.2,286047002.3,N
1632726135.0,286046999.8,N
1632726135.9,286046999.8,N
1632726155.8,286046998.2,N
1632726175.6,286046998.5,N
1632726195.4,286046998.6,N
1632726215.3,286046996.6,N
1632726235.1,286046999.2,N
1632726255.9,286046999.1,N
1632726275.7,286046998.3,N
1632726295.5,286046998.7,N
1632726315.4,286047001.2,N
1632726335.2,286046998.2,N
1632726355.0,286047000.8,N
1632726355.9,286047000.8,N
1632726375.8,286046998.2,N
1632726395.6,286047000.7,N
1632726415.5,286047000.9,N
1632726435.3,286047000.9,N
1632726455.1,286047001.1,N
1632726475.9,286046998.1,N
1632726495.7,286046998.7,N
1632726515.6,286047000.9,N
1632726535.4,286047002.6,N
1632726555.2,286047000.0,N
1632726575.1,286047002.4,N
1632726576.0,286047002.4,N
1632726595.8,286047002.8,N
1632726615.6,286047002.4,N
1632726635.5,286047002.4,N
1632726655.3,286047002.4,N
1632726675.2,286046999.9,N
1632726695.9,286047000.5,N
1632726715.7,286047000.7,N
1632726735.6,286047000.9,N
1632726755.4,286047000.6,N
1632726775.2,286047000.7,N
1632726795.1,286047000.9,N
1632726796.0,286047000.9,N
1632726815.8,286047000.3,N
1632726835.7,286046999.8,N
1632726855.5,286047000.6,N
1632726875.3,286047000.2,N
1632726895.2,286047000.4,N
1632726915.0,286046998.1,N
1632726915.9,286046998.1,N
1632726935.8,286047001.0,N
1632726955.6,286047001.0,N
1632726975.4,286047000.8,N
1632726995.3,286047001.2,N
1632727015.1,286046998.9,N
1632727035.8,286046998.7,N
1632727055.7,286046998.7,N
1632727075.5,286046998.2,N
1632727095.4,286046998.2,N
1632727115.2,286047000.5,N
1632727135.0,286047000.9,N
1632727135.9,286047000.9,N
1632727155.8,286047000.9,N
1632727175.6,286047000.9,N
1632727195.5,286046999.8,N
1632727215.3,286047000.7,N
1632727235.1,286046999.2,N
1632727255.9,286046997.3,N
1632727275.7,286046997.9,N
1632727295.6,286046998.0,N
1632727315.4,286046993.3,Y
1632727335.2,286046995.6,P
1632727355.1,286046996.2,N
1632727356.0,286046996.2,N
1632727375.8,286046995.2,N
1632727395.7,286046995.3,N
1632727415.5,286046995.6,N
1632727435.3,286046996.1,N
1632727455.2,286046993.5,Y
1632727475.0,286046999.2,P
1632727475.9,286046999.2,N
1632727495.7,286046999.3,N
1632727515.6,286046999.6,N
1632727535.4,286046999.4,N
1632727555.3,286046999.1,N
1632727575.1,286046997.0,N
1632727576.0,286046997.0,N
1632727595.8,286046999.4,N
1632727615.7,286046999.5,N
1632727635.5,286046999.2,N
1632727655.3,286046996.8,N
1632727675.2,286046997.6,N
1632727695.0,286046995.0,Y
1632727695.9,286046995.0,P
1632727715.8,286046998.0,N
1632727735.6,286046997.2,N
1632727755.4,286046996.8,N
1632727775.3,286046997.7,N
1632727795.1,286046996.6,Y
1632727815.9,286047000.3,P
1632727835.7,286047002.1,N
1632727855.5,286047002.2,N
1632727875.4,286047002.4,N
1632727895.2,286047002.3,N
1632727915.1,286047002.6,N
1632727916.0,286047002.6,N
1632727935.8,286047002.4,N
1632727955.6,286047002.7,N
1632727975.5,286047002.7,N
1632727995.3,286047002.3,N
1632728015.1,286047001.8,N
1632728035.9,286047003.9,N
1632728055.7,286047001.6,N
1632728075.6,286047002.8,N
1632728095.4,286047000.3,N
1632728115.2,286046999.8,N
1632728135.1,286047002.5,N
1632728136.0,286047002.5,N
1632728155.8,286047002.0,N
1632728175.7,286047002.0,N
1632728195.5,286047002.1,N
1632728215.3,286047002.6,N
1632728235.2,286047002.1,N
1632728255.0,286047002.0,N
1632728255.9,286047002.0,N
1632728275.7,286047002.7,N
1632728295.6,286047002.4,N
1632728315.4,286047000.0,N
1632728335.3,286047000.3,N
1632728355.1,286047002.3,N
1632728375.8,286047002.3,N
1632728395.7,286047002.6,N
1632728415.5,286047000.1,N
1632728435.4,286046999.8,N
1632728455.2,286047002.0,N
1632728475.0,286047002.3,N
1632728475.9,286047002.3,N
1632728495.8,286047002.3,N
1632728515.6,286047001.5,N
1632728535.5,286047004.4,Y
1632728555.3,286047000.8,P
1632728575.1,286046998.3,P
1632728595.9,286046998.9,N
1632728615.7,286046999.3,N
1632728635.5,286046999.0,N
1632728655.4,286046997.3,N
1632728675.2,286046996.5,N
1632728695.1,286046999.2,N
1632728696.0,286046999.2,N
1632728715.8,286046998.4,N
1632728735.6,286047000.5,N
1632728755.5,286047000.4,N
1632728775.3,286047000.8,N
1632728795.2,286047000.6,N
1632728815.9,286047000.0,N
1632728835.7,286047000.0,N
1632728855.6,286047000.4,N
1632728875.4,286047000.7,N
1632728895.2,286046999.7,N
1632728915.1,286047002.8,N
1632728935.3,286047002.8,N
1632728955.2,286047002.8,N
1632728975.9,286047000.0,N
1632728995.7,286047000.0,N
1632729015.6,286047002.3,N
1632729035.4,286047000.2,N
1632729055.3,286046999.9,N
1632729075.1,286047002.3,N
1632729076.0,286047002.3,N
1632729095.8,286046999.7,N
1632729115.7,286047001.0,N
1632729135.5,286047000.0,N
1632729155.3,286046999.8,N
1632729175.2,286047004.4,N
1632729195.0,286047004.0,N
1632729195.9,286047004.0,N
1632729215.8,286047001.4,N
1632729235.6,286047004.3,N
1632729255.4,286047003.8,N
1632729275.3,286047004.0,N
1632729295.1,286047002.4,N
1632729315.8,286047000.9,N
1632729335.7,286047000.9,N
1632729355.5,286047000.7,N
1632729375.4,286046998.4,N
1632729395.2,286046998.7,N
1632729415.0,286047000.4,N
1632729415.9,286047000.4,N
1632729435.8,286047000.4,N
1632729455.6,286046998.2,N
1632729475.5,286046998.5,N
1632729495.3,286046999.0,N
1632729515.1,286046998.5,N
1632729535.9,286046998.3,N
1632729555.7,286046998.4,N
1632729575.5,286047000.0,N
1632729595.4,286047000.4,N
